This is the latest recevied weather packets stored in our database for station/object SP2WPY-13. If no packets are shown the sender has not sent any weather packets the latest 10 day(s).
| Time | Temp. | Humidity | Pressure | Rain* | Wind** | Luminosity | Snow |
|---|---|---|---|---|---|---|---|
| 1788003037 | 21.11° C | 93% | 1012.7 hPa | - | - | - | - |
| 1788002716 | 21.67° C | 92% | 1012.7 hPa | - | - | - | - |
| 1788002440 | 22.22° C | 89% | 1012.7 hPa | - | - | - | - |
| 1788002121 | 22.22° C | 88% | 1012.7 hPa | - | - | - | - |
| 1788001846 | 22.22° C | 87% | 1012.7 hPa | - | - | - | - |
| 1788001525 | 22.78° C | 93% | 1012.8 hPa | - | - | - | - |
| 1788001204 | 21.67° C | 98% | 1012.7 hPa | - | - | - | - |
| 1788000931 | 21.11° C | 99% | 1012.7 hPa | - | - | - | - |
| 1788000611 | 21.11° C | 100% | 1012.7 hPa | - | - | - | - |
| 1788000337 | 21.11° C | 100% | 1012.7 hPa | - | - | - | - |
| 1788000017 | 20.56° C | 100% | 1012.7 hPa | - | - | - | - |
| 1787999743 | 20.56° C | 100% | 1012.9 hPa | - | - | - | - |
| 1787999423 | 20.56° C | 100% | 1012.7 hPa | - | - | - | - |
| 1787999104 | 21.11° C | 100% | 1012.7 hPa | - | - | - | - |
| 1787998829 | 21.11° C | 100% | 1012.7 hPa | - | - | - | - |
| 1787998510 | 20.56° C | 100% | 1012.6 hPa | - | - | - | - |
| 1787998236 | 20° C | 100% | 1012.6 hPa | - | - | - | - |
| 1787997916 | 20° C | 100% | 1012.5 hPa | - | - | - | - |
| 1787997643 | 20.56° C | 100% | 1012.3 hPa | - | - | - | - |
| 1787997323 | 20° C | 100% | 1012.3 hPa | - | - | - | - |
| 1787997002 | 19.44° C | 100% | 1012.3 hPa | - | - | - | - |
| 1787996729 | 19.44° C | 100% | 1012.3 hPa | - | - | - | - |
| 1787996409 | 19.44° C | 100% | 1012.3 hPa | - | - | - | - |
| 1787996135 | 18.89° C | 100% | 1012.2 hPa | - | - | - | - |
| 1787995816 | 18.89° C | 100% | 1012 hPa | - | - | - | - |
* Rain since midnight (hover to see other rain measurements)
** Current wind speed in m/s (hover to see current wind gust speed)